TimeCDT,TemperatureF,Dew PointF,Humidity,Sea Level PressureIn,VisibilityMPH,Wind Direction,Wind SpeedMPH,Gust SpeedMPH,PrecipitationIn,Events,Conditions,WindDirDegrees,DateUTC
12:53 AM,71.1,66.9,87,30.04,10.0,SSE,3.5,-,N/A,,Partly Cloudy,160,2013-10-03 05:53:00
1:53 AM,71.1,66.9,87,30.04,10.0,Calm,Calm,-,N/A,,Overcast,0,2013-10-03 06:53:00
2:53 AM,70.0,66.0,87,30.02,10.0,Calm,Calm,-,N/A,,Partly Cloudy,0,2013-10-03 07:53:00
3:53 AM,66.9,64.9,93,30.02,10.0,Calm,Calm,-,N/A,,Clear,0,2013-10-03 08:53:00
4:53 AM,66.9,64.9,93,30.03,10.0,Calm,Calm,-,N/A,,Partly Cloudy,0,2013-10-03 09:53:00
5:53 AM,66.9,64.0,90,30.04,10.0,SSE,3.5,-,N/A,,Scattered Clouds,160,2013-10-03 10:53:00
6:53 AM,68.0,64.9,90,30.04,10.0,South,4.6,-,N/A,,Partly Cloudy,170,2013-10-03 11:53:00
7:53 AM,69.1,66.0,90,30.06,10.0,South,3.5,-,N/A,,Clear,180,2013-10-03 12:53:00
8:53 AM,73.9,66.0,76,30.07,10.0,SSW,6.9,-,N/A,,Clear,200,2013-10-03 13:53:00
9:53 AM,77.0,64.9,66,30.07,10.0,South,6.9,-,N/A,,Scattered Clouds,190,2013-10-03 14:53:00
10:53 AM,80.1,64.9,60,30.06,10.0,South,8.1,16.1,N/A,,Partly Cloudy,170,2013-10-03 15:53:00
11:53 AM,82.0,66.9,60,30.04,10.0,South,11.5,-,N/A,,Partly Cloudy,190,2013-10-03 16:53:00
12:53 PM,82.9,66.9,58,30.03,10.0,Variable,6.9,-,N/A,,Mostly Cloudy,0,2013-10-03 17:53:00
1:53 PM,82.9,66.0,56,30.01,10.0,SSE,8.1,-,N/A,,Mostly Cloudy,150,2013-10-03 18:53:00
2:53 PM,84.0,64.9,53,29.98,10.0,SSE,6.9,-,N/A,,Clear,150,2013-10-03 19:53:00
3:53 PM,84.0,64.9,53,29.98,10.0,SSE,8.1,-,N/A,,Scattered Clouds,150,2013-10-03 20:53:00
4:53 PM,82.9,66.0,56,29.97,10.0,SSE,6.9,-,N/A,,Partly Cloudy,160,2013-10-03 21:53:00
5:53 PM,80.1,66.9,64,29.97,10.0,Calm,Calm,-,N/A,,Clear,0,2013-10-03 22:53:00
6:53 PM,77.0,66.9,71,29.98,10.0,Calm,Calm,-,N/A,,Clear,0,2013-10-03 23:53:00
7:53 PM,75.0,68.0,79,29.99,10.0,Variable,3.5,-,N/A,,Clear,0,2013-10-04 00:53:00
8:53 PM,73.9,68.0,82,30.01,10.0,South,5.8,-,N/A,,Clear,180,2013-10-04 01:53:00
9:53 PM,73.0,66.9,81,30.02,10.0,Variable,4.6,-,N/A,,Clear,0,2013-10-04 02:53:00
11:53 PM,71.1,66.9,87,30.02,10.0,South,4.6,-,N/A,,Clear,170,2013-10-04 04:53:00